This is the latest recevied weather packets stored in our database for station/object KD8NVS-13. If no packets are shown the sender has not sent any weather packets the latest 10 day(s).
| Time | Temp. | Humidity | Pressure | Rain* | Wind** | Luminosity | Snow |
|---|---|---|---|---|---|---|---|
| 1777722558 | 2.78° C | 97% | 1007 hPa | 0 mm | - | 81 W/m² | - |
| 1777722256 | 3.89° C | 98% | 1007 hPa | 0 mm | - | 69 W/m² | - |
| 1777721953 | 3.33° C | 98% | 1007 hPa | 0 mm | - | 59 W/m² | - |
| 1777721650 | 4.44° C | 98% | 1007 hPa | 0 mm | - | 55 W/m² | - |
| 1777721349 | 3.89° C | 98% | 1007 hPa | 0 mm | - | 50 W/m² | - |
| 1777721046 | 2.22° C | 98% | 1007 hPa | 0 mm | - | 43 W/m² | - |
| 1777720743 | 1.67° C | 98% | 1007 hPa | 0 mm | - | 40 W/m² | - |
| 1777720440 | 1.11° C | 98% | 1007.3 hPa | 0 mm | - | 36 W/m² | - |
| 1777720138 | 0.56° C | 98% | 1007 hPa | 0 mm | - | 31 W/m² | - |
| 1777719836 | 0.56° C | 98% | 1007 hPa | 0 mm | - | 27 W/m² | - |
| 1777719533 | 0.56° C | 98% | 1007 hPa | 0 mm | - | 21 W/m² | - |
| 1777719229 | 0.56° C | 98% | 1007 hPa | 0 mm | - | 15 W/m² | - |
| 1777718927 | 0.56° C | 98% | 1007 hPa | 0 mm | - | 11 W/m² | - |
| 1777718625 | 0.56° C | 98% | 1007 hPa | 0 mm | - | 7 W/m² | - |
| 1777718322 | 0.56° C | 98% | 1007 hPa | 0 mm | - | 5 W/m² | - |
| 1777718019 | 0.56° C | 98% | 1007 hPa | 0 mm | - | 3 W/m² | - |
| 1777717716 | 0.56° C | 98% | 1007 hPa | 0 mm | - | 2 W/m² | - |
| 1777717412 | 0.56° C | 98% | 1007 hPa | 0 mm | - | 1 W/m² | - |
| 1777717110 | 0.56° C | 98% | 1007 hPa | 0 mm | - | 1 W/m² | - |
| 1777716808 | 0.56° C | 98% | 1007 hPa | 0 mm | - | 0 W/m² | - |
| 1777716506 | 0.56° C | 98% | 1007 hPa | 0 mm | - | 0 W/m² | - |
| 1777716205 | 0.56° C | 98% | 1006.7 hPa | 0 mm | - | 0 W/m² | - |
| 1777715902 | 0.56° C | 98% | 1007 hPa | 0 mm | - | 0 W/m² | - |
| 1777715600 | 0.56° C | 98% | 1007 hPa | 0 mm | - | 0 W/m² | - |
| 1777715298 | 0.56° C | 98% | 1007 hPa | 0 mm | - | 0 W/m² | - |
* Rain latest hour (hover to see other rain measurements)
** Current wind speed in m/s (hover to see current wind gust speed)